Location: Holbach
(51.5399°N, 10.6036°E)
Time: 16:07:05
(UTC+00:00)

Cosmos 2251 Rocket - Pass Details

Date: 18 September 2020
Orbit: 765 x 792 km, 74.0° (Epoch: 21 October)

Event Time Altitude Azimuth Distance (km) Brightness Sun altitude
Rises 20:05:08 0° 337° (NNW) 3,304 7.7 -24.1°
Reaches altitude 10° 20:07:41 10° 345° (NNW) 2,369 6.7 -24.4°
Maximum altitude 20:12:46 41° 55° (NE) 1,140 4.2 -25.0°
Enters shadow 20:12:50 41° 57° (ENE) 1,140 4.2 -25.0°
